Time,TemperatureF,DewpointF,PressureIn,WindDirection,WindDirectionDegrees,WindSpeedMPH,WindSpeedGustMPH,Humidity,HourlyPrecipIn,Conditions,Clouds,dailyrainin,SoftwareType,DateUTC
2013-02-15 00:00:00,34.5,24.7,30.22,NW,321,2.0,9.0,67,0.00,,---,0.00,VWS V14.01,2013-02-15 06:00:00,
2013-02-15 00:05:00,34.2,24.4,30.18,NW,314,7.0,11.0,67,0.00,,---,0.00,VWS V14.01,2013-02-15 06:05:00,
2013-02-15 00:10:00,33.9,24.5,30.18,NW,307,2.0,11.0,68,0.00,,---,0.00,VWS V14.01,2013-02-15 06:10:00,
2013-02-15 00:15:00,33.7,24.6,30.19,NNW,340,7.0,10.0,69,0.00,,---,0.00,VWS V14.01,2013-02-15 06:15:00,
2013-02-15 00:20:00,33.5,24.4,30.23,NW,321,4.0,7.0,69,0.00,,---,0.00,VWS V14.01,2013-02-15 06:20:00,
2013-02-15 00:25:00,33.4,24.7,30.23,NW,311,1.0,8.0,70,0.00,,---,0.00,VWS V14.01,2013-02-15 06:25:00,
2013-02-15 00:30:00,33.2,24.5,30.19,NNW,327,0.0,7.0,70,0.00,,---,0.00,VWS V14.01,2013-02-15 06:30:00,
2013-02-15 00:35:00,33.2,24.8,30.23,NNW,328,7.0,7.0,71,0.00,,---,0.00,VWS V14.01,2013-02-15 06:35:00,
2013-02-15 00:40:00,33.3,24.9,30.23,NW,305,8.0,8.0,71,0.00,,---,0.00,VWS V14.01,2013-02-15 06:40:00,
2013-02-15 00:45:00,33.4,25.0,30.20,NW,321,5.0,8.0,71,0.00,,---,0.00,VWS V14.01,2013-02-15 06:45:00,
2013-02-15 00:49:00,33.6,25.5,30.24,NW,310,4.0,8.0,72,0.00,,---,0.00,VWS V14.01,2013-02-15 06:49:00,
2013-02-15 00:54:00,33.6,25.5,30.24,West,281,4.0,8.0,72,0.00,,---,0.00,VWS V14.01,2013-02-15 06:54:00,
2013-02-15 00:59:00,33.7,25.6,30.20,NW,317,3.0,10.0,72,0.00,,---,0.00,VWS V14.01,2013-02-15 06:59:00,
2013-02-15 01:04:00,33.7,26.0,30.20,NW,307,4.0,7.0,73,0.00,,---,0.00,VWS V14.01,2013-02-15 07:04:00,
2013-02-15 01:09:00,33.7,26.0,30.25,WNW,303,7.0,10.0,73,0.00,,---,0.00,VWS V14.01,2013-02-15 07:09:00,
2013-02-15 01:14:00,33.7,26.3,30.25,NW,307,2.0,7.0,74,0.00,,---,0.00,VWS V14.01,2013-02-15 07:14:00,
2013-02-15 01:19:00,33.5,26.4,30.22,North,3,7.0,11.0,75,0.00,,---,0.00,VWS V14.01,2013-02-15 07:19:00,
2013-02-15 01:24:00,32.6,25.6,30.27,NE,37,7.0,11.0,75,0.00,,---,0.00,VWS V14.01,2013-02-15 07:24:00,
2013-02-15 01:29:00,31.8,24.8,30.23,NNE,22,7.0,15.0,75,0.00,,---,0.00,VWS V14.01,2013-02-15 07:29:00,
2013-02-15 01:34:00,31.6,24.6,30.27,North,9,5.0,10.0,75,0.00,,---,0.00,VWS V14.01,2013-02-15 07:34:00,
2013-02-15 01:39:00,31.6,24.3,30.23,NNE,21,4.0,10.0,74,0.00,,---,0.00,VWS V14.01,2013-02-15 07:39:00,
2013-02-15 01:44:00,31.5,23.9,30.27,North,10,11.0,11.0,73,0.00,,---,0.00,VWS V14.01,2013-02-15 07:44:00,
2013-02-15 01:49:00,31.6,24.0,30.24,NNW,346,2.0,13.0,73,0.00,,---,0.00,VWS V14.01,2013-02-15 07:49:00,
2013-02-15 01:54:00,31.5,24.2,30.24,North,2,2.0,9.0,74,0.00,,---,0.00,VWS V14.01,2013-02-15 07:54:00,
2013-02-15 01:59:00,31.5,24.2,30.24,North,359,3.0,7.0,74,0.00,,---,0.00,VWS V14.01,2013-02-15 07:59:00,
2013-02-15 02:04:00,31.3,24.0,30.28,NW,313,4.0,8.0,74,0.00,,---,0.00,VWS V14.01,2013-02-15 08:04:00,
2013-02-15 02:09:00,31.3,24.3,30.24,North,2,1.0,8.0,75,0.00,,---,0.00,VWS V14.01,2013-02-15 08:09:00,
2013-02-15 02:14:00,31.2,24.2,30.24,NW,317,3.0,11.0,75,0.00,,---,0.00,VWS V14.01,2013-02-15 08:14:00,
2013-02-15 02:19:00,30.9,23.6,30.24,NW,317,5.0,11.0,74,0.00,,---,0.00,VWS V14.01,2013-02-15 08:19:00,
2013-02-15 02:24:00,30.6,21.6,30.25,North,1,5.0,10.0,69,0.00,,---,0.00,VWS V14.01,2013-02-15 08:24:00,
2013-02-15 02:29:00,30.6,21.0,30.29,NNW,342,3.0,7.0,67,0.00,,---,0.00,VWS V14.01,2013-02-15 08:29:00,
2013-02-15 02:34:00,30.5,20.5,30.29,North,10,5.0,7.0,66,0.00,,---,0.00,VWS V14.01,2013-02-15 08:34:00,
2013-02-15 02:39:00,30.5,19.8,30.25,North,350,3.0,11.0,64,0.00,,---,0.00,VWS V14.01,2013-02-15 08:39:00,
2013-02-15 02:44:00,30.4,19.3,30.30,North,9,3.0,8.0,63,0.00,,---,0.00,VWS V14.01,2013-02-15 08:44:00,
2013-02-15 02:49:00,30.3,18.9,30.30,North,360,5.0,7.0,62,0.00,,---,0.00,VWS V14.01,2013-02-15 08:49:00,
2013-02-15 02:54:00,30.3,18.5,30.26,North,6,5.0,5.0,61,0.00,,---,0.00,VWS V14.01,2013-02-15 08:54:00,
2013-02-15 02:59:00,30.3,18.5,30.30,North,349,2.0,9.0,61,0.00,,---,0.00,VWS V14.01,2013-02-15 08:59:00,
2013-02-15 03:04:00,30.3,19.6,30.30,NNW,332,8.0,8.0,64,0.00,,---,0.00,VWS V14.01,2013-02-15 09:04:00,
2013-02-15 03:09:00,30.2,20.2,30.27,NW,321,1.0,4.0,66,0.00,,---,0.00,VWS V14.01,2013-02-15 09:09:00,
2013-02-15 03:14:00,30.2,20.2,30.31,WNW,301,1.0,5.0,66,0.00,,---,0.00,VWS V14.01,2013-02-15 09:14:00,
2013-02-15 03:19:00,30.0,20.0,30.31,NNW,340,2.0,6.0,66,0.00,,---,0.00,VWS V14.01,2013-02-15 09:19:00,
2013-02-15 03:24:00,29.8,19.8,30.27,NNW,327,2.0,6.0,66,0.00,,---,0.00,VWS V14.01,2013-02-15 09:24:00,
2013-02-15 03:29:00,29.5,19.2,30.32,NNW,340,4.0,8.0,65,0.00,,---,0.00,VWS V14.01,2013-02-15 09:29:00,
2013-02-15 03:34:00,29.3,18.6,30.27,North,2,6.0,8.0,64,0.00,,---,0.00,VWS V14.01,2013-02-15 09:34:00,
2013-02-15 03:39:00,29.0,17.6,30.27,North,359,3.0,10.0,62,0.00,,---,0.00,VWS V14.01,2013-02-15 09:39:00,
2013-02-15 03:44:00,28.7,17.7,30.32,North,351,3.0,7.0,63,0.00,,---,0.00,VWS V14.01,2013-02-15 09:44:00,
2013-02-15 03:49:00,28.5,17.9,30.32,NNW,345,2.0,5.0,64,0.00,,---,0.00,VWS V14.01,2013-02-15 09:49:00,
2013-02-15 03:54:00,28.0,17.8,30.28,NW,326,3.0,7.0,65,0.00,,---,0.00,VWS V14.01,2013-02-15 09:54:00,
2013-02-15 03:59:00,27.6,17.7,30.32,NW,324,6.0,8.0,66,0.00,,---,0.00,VWS V14.01,2013-02-15 09:59:00,
2013-02-15 04:04:00,27.5,18.0,30.32,NNW,332,5.0,5.0,67,0.00,,---,0.00,VWS V14.01,2013-02-15 10:04:00,
2013-02-15 04:09:00,27.2,18.4,30.32,NNW,340,4.0,8.0,69,0.00,,---,0.00,VWS V14.01,2013-02-15 10:09:00,
2013-02-15 04:14:00,27.0,18.5,30.29,NNE,13,5.0,9.0,70,0.00,,---,0.00,VWS V14.01,2013-02-15 10:14:00,
2013-02-15 04:19:00,26.7,18.2,30.29,NNW,347,3.0,8.0,70,0.00,,---,0.00,VWS V14.01,2013-02-15 10:19:00,
2013-02-15 04:24:00,26.5,18.4,30.33,NNW,333,0.0,5.0,71,0.00,,---,0.00,VWS V14.01,2013-02-15 10:24:00,
2013-02-15 04:29:00,26.3,18.2,30.29,NNW,345,1.0,9.0,71,0.00,,---,0.00,VWS V14.01,2013-02-15 10:29:00,
2013-02-15 04:34:00,26.1,18.0,30.29,NNW,345,2.0,5.0,71,0.00,,---,0.00,VWS V14.01,2013-02-15 10:34:00,
2013-02-15 04:39:00,26.0,18.2,30.29,NW,323,4.0,5.0,72,0.00,,---,0.00,VWS V14.01,2013-02-15 10:39:00,
2013-02-15 04:44:00,25.8,18.0,30.29,NNW,345,1.0,4.0,72,0.00,,---,0.00,VWS V14.01,2013-02-15 10:44:00,
2013-02-15 04:49:00,25.5,18.1,30.34,North,353,0.0,7.0,73,0.00,,---,0.00,VWS V14.01,2013-02-15 10:49:00,
2013-02-15 04:54:00,25.3,17.9,30.30,North,355,1.0,5.0,73,0.00,,---,0.00,VWS V14.01,2013-02-15 10:54:00,
2013-02-15 04:59:00,25.2,17.8,30.34,NNW,346,3.0,7.0,73,0.00,,---,0.00,VWS V14.01,2013-02-15 10:59:00,
2013-02-15 05:04:00,24.9,17.8,30.35,NNW,334,4.0,7.0,74,0.00,,---,0.00,VWS V14.01,2013-02-15 11:04:00,
2013-02-15 05:09:00,24.7,17.6,30.35,North,1,6.0,7.0,74,0.00,,---,0.00,VWS V14.01,2013-02-15 11:09:00,
2013-02-15 05:14:00,24.5,17.4,30.31,NNW,342,2.0,5.0,74,0.00,,---,0.00,VWS V14.01,2013-02-15 11:14:00,
2013-02-15 05:19:00,24.2,17.1,30.36,NW,322,5.0,5.0,74,0.00,,---,0.00,VWS V14.01,2013-02-15 11:19:00,
2013-02-15 05:24:00,23.9,16.8,30.31,North,353,3.0,6.0,74,0.00,,---,0.00,VWS V14.01,2013-02-15 11:24:00,
2013-02-15 05:29:00,23.6,16.2,30.36,NW,326,4.0,4.0,73,0.00,,---,0.00,VWS V14.01,2013-02-15 11:29:00,
2013-02-15 05:34:00,23.3,15.9,30.36,North,358,2.0,5.0,73,0.00,,---,0.00,VWS V14.01,2013-02-15 11:34:00,
2013-02-15 05:39:00,23.0,15.3,30.32,NNE,15,2.0,5.0,72,0.00,,---,0.00,VWS V14.01,2013-02-15 11:39:00,
2013-02-15 05:44:00,22.9,15.2,30.36,North,359,2.0,5.0,72,0.00,,---,0.00,VWS V14.01,2013-02-15 11:44:00,
2013-02-15 05:49:00,22.7,15.1,30.32,North,6,2.0,4.0,72,0.00,,---,0.00,VWS V14.01,2013-02-15 11:49:00,
2013-02-15 05:54:00,22.6,14.9,30.36,NNE,12,2.0,5.0,72,0.00,,---,0.00,VWS V14.01,2013-02-15 11:54:00,
2013-02-15 05:59:00,22.5,14.9,30.32,NNW,336,1.0,4.0,72,0.00,,---,0.00,VWS V14.01,2013-02-15 11:59:00,
2013-02-15 06:04:00,22.3,15.0,30.37,NW,326,2.0,5.0,73,0.00,,---,0.00,VWS V14.01,2013-02-15 12:04:00,
2013-02-15 06:09:00,22.2,14.9,30.32,NNE,22,1.0,3.0,73,0.00,,---,0.00,VWS V14.01,2013-02-15 12:09:00,
2013-02-15 06:14:00,22.1,14.8,30.33,North,7,1.0,4.0,73,0.00,,---,0.00,VWS V14.01,2013-02-15 12:14:00,
2013-02-15 06:19:00,22.0,14.4,30.37,NW,326,2.0,3.0,72,0.00,,---,0.00,VWS V14.01,2013-02-15 12:19:00,
2013-02-15 06:24:00,21.8,14.5,30.37,NNW,335,2.0,4.0,73,0.00,,---,0.00,VWS V14.01,2013-02-15 12:24:00,
2013-02-15 06:29:00,21.7,14.4,30.38,NNW,336,3.0,5.0,73,0.00,,---,0.00,VWS V14.01,2013-02-15 12:29:00,
2013-02-15 06:34:00,21.6,14.3,30.38,NNE,23,1.0,5.0,73,0.00,,---,0.00,VWS V14.01,2013-02-15 12:34:00,
2013-02-15 06:39:00,21.5,14.2,30.38,NNW,332,1.0,4.0,73,0.00,,---,0.00,VWS V14.01,2013-02-15 12:39:00,
2013-02-15 06:44:00,21.4,13.8,30.34,North,351,2.0,5.0,72,0.00,,---,0.00,VWS V14.01,2013-02-15 12:44:00,
2013-02-15 06:49:00,21.4,14.1,30.39,North,351,0.0,2.0,73,0.00,,---,0.00,VWS V14.01,2013-02-15 12:49:00,
2013-02-15 06:54:00,21.1,13.8,30.39,NNW,336,1.0,3.0,73,0.00,,---,0.00,VWS V14.01,2013-02-15 12:54:00,
2013-02-15 06:59:00,21.0,13.7,30.34,WNW,299,0.0,5.0,73,0.00,,---,0.00,VWS V14.01,2013-02-15 12:59:00,
2013-02-15 07:04:00,20.9,13.6,30.39,NW,322,1.0,3.0,73,0.00,,---,0.00,VWS V14.01,2013-02-15 13:04:00,
2013-02-15 07:09:00,20.9,13.6,30.35,NW,322,1.0,2.0,73,0.00,,---,0.00,VWS V14.01,2013-02-15 13:09:00,
2013-02-15 07:14:00,20.9,13.6,30.39,NW,321,2.0,4.0,73,0.00,,---,0.00,VWS V14.01,2013-02-15 13:14:00,
2013-02-15 07:19:00,20.8,13.2,30.35,NNW,328,1.0,5.0,72,0.00,,---,0.00,VWS V14.01,2013-02-15 13:19:00,
2013-02-15 07:24:00,20.8,13.2,30.35,NW,316,0.0,5.0,72,0.00,,---,0.00,VWS V14.01,2013-02-15 13:24:00,
2013-02-15 07:29:00,20.8,13.2,30.39,NNW,332,0.0,2.0,72,0.00,,---,0.00,VWS V14.01,2013-02-15 13:29:00,
2013-02-15 07:34:00,20.9,13.3,30.35,NNE,26,1.0,3.0,72,0.00,,---,0.00,VWS V14.01,2013-02-15 13:34:00,
2013-02-15 07:39:00,21.0,13.4,30.40,NNE,22,5.0,5.0,72,0.00,,---,0.00,VWS V14.01,2013-02-15 13:39:00,
2013-02-15 07:44:00,21.1,12.9,30.36,North,5,1.0,5.0,70,0.00,,---,0.00,VWS V14.01,2013-02-15 13:44:00,
2013-02-15 07:48:00,21.2,13.0,30.36,North,1,3.0,3.0,70,0.00,,---,0.00,VWS V14.01,2013-02-15 13:48:00,
2013-02-15 07:53:00,21.4,12.8,30.40,NNW,327,3.0,4.0,69,0.00,,---,0.00,VWS V14.01,2013-02-15 13:53:00,
2013-02-15 07:58:00,21.6,13.0,30.41,NNW,327,0.0,3.0,69,0.00,,---,0.00,VWS V14.01,2013-02-15 13:58:00,
2013-02-15 08:03:00,21.8,13.5,30.41,NNW,327,0.0,2.0,70,0.00,,---,0.00,VWS V14.01,2013-02-15 14:03:00,
2013-02-15 08:08:00,21.8,13.2,30.36,NNW,327,2.0,3.0,69,0.00,,---,0.00,VWS V14.01,2013-02-15 14:08:00,
2013-02-15 08:13:00,22.1,13.5,30.36,NW,308,1.0,3.0,69,0.00,,---,0.00,VWS V14.01,2013-02-15 14:13:00,
2013-02-15 08:18:00,22.2,13.6,30.41,North,358,0.0,2.0,69,0.00,,---,0.00,VWS V14.01,2013-02-15 14:18:00,
2013-02-15 08:23:00,22.4,13.4,30.41,NNE,19,5.0,5.0,68,0.00,,---,0.00,VWS V14.01,2013-02-15 14:23:00,
2013-02-15 08:28:00,22.4,13.1,30.41,NNW,340,2.0,7.0,67,0.00,,---,0.00,VWS V14.01,2013-02-15 14:28:00,
2013-02-15 08:33:00,22.7,13.1,30.41,NNW,338,2.0,6.0,66,0.00,,---,0.00,VWS V14.01,2013-02-15 14:33:00,
2013-02-15 08:38:00,23.1,13.4,30.41,North,7,3.0,5.0,66,0.00,,---,0.00,VWS V14.01,2013-02-15 14:38:00,
2013-02-15 08:43:00,22.9,12.6,30.41,NE,34,3.0,7.0,64,0.00,,---,0.00,VWS V14.01,2013-02-15 14:43:00,
2013-02-15 08:48:00,23.1,12.8,30.37,NNW,343,1.0,8.0,64,0.00,,---,0.00,VWS V14.01,2013-02-15 14:48:00,
2013-02-15 08:53:00,23.3,12.9,30.41,NNE,15,8.0,8.0,64,0.00,,---,0.00,VWS V14.01,2013-02-15 14:53:00,
2013-02-15 08:58:00,23.2,12.5,30.37,North,8,0.0,8.0,63,0.00,,---,0.00,VWS V14.01,2013-02-15 14:58:00,
2013-02-15 09:03:00,24.0,13.2,30.41,North,349,1.0,7.0,63,0.00,,---,0.00,VWS V14.01,2013-02-15 15:03:00,
2013-02-15 09:08:00,24.4,12.9,30.41,North,352,6.0,7.0,61,0.00,,---,0.00,VWS V14.01,2013-02-15 15:08:00,
2013-02-15 09:13:00,24.5,13.0,30.41,North,357,2.0,3.0,61,0.00,,---,0.00,VWS V14.01,2013-02-15 15:13:00,
2013-02-15 09:18:00,25.2,13.6,30.37,NW,317,4.0,5.0,61,0.00,,---,0.00,VWS V14.01,2013-02-15 15:18:00,
2013-02-15 09:23:00,25.2,13.3,30.42,NNW,345,2.0,4.0,60,0.00,,---,0.00,VWS V14.01,2013-02-15 15:23:00,
2013-02-15 09:28:00,25.4,13.5,30.42,NW,315,2.0,7.0,60,0.00,,---,0.00,VWS V14.01,2013-02-15 15:28:00,
2013-02-15 09:33:00,25.6,13.3,30.42,NNW,348,7.0,7.0,59,0.00,,---,0.00,VWS V14.01,2013-02-15 15:33:00,
2013-02-15 09:38:00,25.9,13.2,30.37,NNW,334,1.0,5.0,58,0.00,,---,0.00,VWS V14.01,2013-02-15 15:38:00,
2013-02-15 09:43:00,26.1,13.4,30.42,North,350,3.0,5.0,58,0.00,,---,0.00,VWS V14.01,2013-02-15 15:43:00,
2013-02-15 09:48:00,26.6,12.2,30.41,NNW,347,2.0,6.0,54,0.00,,---,0.00,VWS V14.01,2013-02-15 15:48:00,
2013-02-15 09:53:00,26.7,11.9,30.41,NNE,20,8.0,8.0,53,0.00,,---,0.00,VWS V14.01,2013-02-15 15:53:00,
2013-02-15 09:58:00,26.7,11.9,30.42,NNW,332,3.0,5.0,53,0.00,,---,0.00,VWS V14.01,2013-02-15 15:58:00,
2013-02-15 10:03:00,27.3,11.6,30.42,North,4,1.0,11.0,51,0.00,,---,0.00,VWS V14.01,2013-02-15 16:03:00,
2013-02-15 10:08:00,27.6,10.9,30.41,NNE,19,5.0,7.0,49,0.00,,---,0.00,VWS V14.01,2013-02-15 16:08:00,
2013-02-15 10:13:00,27.7,11.0,30.37,NNW,338,3.0,4.0,49,0.00,,---,0.00,VWS V14.01,2013-02-15 16:13:00,
2013-02-15 10:18:00,28.5,10.4,30.37,NW,319,3.0,5.0,46,0.00,,---,0.00,VWS V14.01,2013-02-15 16:18:00,
2013-02-15 10:23:00,29.0,11.3,30.37,North,359,3.0,4.0,47,0.00,,---,0.00,VWS V14.01,2013-02-15 16:23:00,
2013-02-15 10:28:00,29.0,9.3,30.41,NNE,15,0.0,5.0,43,0.00,,---,0.00,VWS V14.01,2013-02-15 16:28:00,
2013-02-15 10:33:00,29.2,10.0,30.41,NNW,331,3.0,3.0,44,0.00,,---,0.00,VWS V14.01,2013-02-15 16:33:00,
2013-02-15 10:38:00,29.9,10.1,30.37,North,7,3.0,4.0,43,0.00,,---,0.00,VWS V14.01,2013-02-15 16:38:00,
2013-02-15 10:43:00,30.3,10.5,30.37,WSW,257,0.0,5.0,43,0.00,,---,0.00,VWS V14.01,2013-02-15 16:43:00,
2013-02-15 10:48:00,31.0,11.1,30.37,NNE,18,3.0,3.0,43,0.00,,---,0.00,VWS V14.01,2013-02-15 16:48:00,
2013-02-15 10:53:00,31.0,10.1,30.36,NW,326,2.0,5.0,41,0.00,,---,0.00,VWS V14.01,2013-02-15 16:53:00,
2013-02-15 10:58:00,31.3,9.2,30.37,NNW,333,0.0,6.0,39,0.00,,---,0.00,VWS V14.01,2013-02-15 16:58:00,
2013-02-15 11:03:00,31.4,9.9,30.37,NW,322,3.0,5.0,40,0.00,,---,0.00,VWS V14.01,2013-02-15 17:03:00,
2013-02-15 11:08:00,30.9,10.0,30.36,NW,326,1.0,5.0,41,0.00,,---,0.00,VWS V14.01,2013-02-15 17:08:00,
2013-02-15 11:13:00,31.6,10.6,30.36,NNE,14,1.0,4.0,41,0.00,,---,0.00,VWS V14.01,2013-02-15 17:13:00,
2013-02-15 11:18:00,31.8,10.2,30.36,NW,310,4.0,4.0,40,0.00,,---,0.00,VWS V14.01,2013-02-15 17:18:00,
2013-02-15 11:23:00,32.5,9.7,30.36,NW,319,3.0,3.0,38,0.00,,---,0.00,VWS V14.01,2013-02-15 17:23:00,
2013-02-15 11:28:00,32.8,9.4,30.36,NNE,27,4.0,4.0,37,0.00,,---,0.00,VWS V14.01,2013-02-15 17:28:00,
2013-02-15 11:33:00,32.9,8.9,30.41,NW,325,1.0,7.0,36,0.00,,---,0.00,VWS V14.01,2013-02-15 17:33:00,
2013-02-15 11:38:00,33.2,9.8,30.35,North,5,2.0,5.0,37,0.00,,---,0.00,VWS V14.01,2013-02-15 17:38:00,
2013-02-15 11:43:00,32.5,9.1,30.40,NNW,341,0.0,7.0,37,0.00,,---,0.00,VWS V14.01,2013-02-15 17:43:00,
2013-02-15 11:48:00,32.9,10.1,30.40,NW,320,6.0,8.0,38,0.00,,---,0.00,VWS V14.01,2013-02-15 17:48:00,
2013-02-15 11:53:00,34.1,11.2,30.35,NNW,345,2.0,6.0,38,0.00,,---,0.00,VWS V14.01,2013-02-15 17:53:00,
2013-02-15 11:58:00,34.3,10.8,30.35,North,5,1.0,3.0,37,0.00,,---,0.00,VWS V14.01,2013-02-15 17:58:00,
2013-02-15 12:03:00,34.0,9.9,30.34,NW,311,8.0,8.0,36,0.00,,---,0.00,VWS V14.01,2013-02-15 18:03:00,
2013-02-15 12:08:00,33.9,10.4,30.39,NW,326,6.0,7.0,37,0.00,,---,0.00,VWS V14.01,2013-02-15 18:08:00,
2013-02-15 12:13:00,34.7,11.7,30.34,NW,304,1.0,7.0,38,0.00,,---,0.00,VWS V14.01,2013-02-15 18:13:00,
2013-02-15 12:18:00,34.9,11.9,30.38,NNW,337,8.0,8.0,38,0.00,,---,0.00,VWS V14.01,2013-02-15 18:18:00,
2013-02-15 12:23:00,34.3,12.5,30.38,West,262,5.0,10.0,40,0.00,,---,0.00,VWS V14.01,2013-02-15 18:23:00,
2013-02-15 12:28:00,35.1,13.8,30.33,NW,325,2.0,8.0,41,0.00,,---,0.00,VWS V14.01,2013-02-15 18:28:00,
2013-02-15 12:33:00,35.3,14.0,30.33,ENE,63,3.0,5.0,41,0.00,,---,0.00,VWS V14.01,2013-02-15 18:33:00,
2013-02-15 12:38:00,35.8,14.4,30.33,NW,317,6.0,9.0,41,0.00,,---,0.00,VWS V14.01,2013-02-15 18:38:00,
2013-02-15 12:43:00,35.7,14.3,30.33,NNW,330,8.0,9.0,41,0.00,,---,0.00,VWS V14.01,2013-02-15 18:43:00,
2013-02-15 12:48:00,35.8,13.9,30.33,NW,326,6.0,7.0,40,0.00,,---,0.00,VWS V14.01,2013-02-15 18:48:00,
2013-02-15 12:53:00,36.2,15.3,30.33,NW,320,0.0,8.0,42,0.00,,---,0.00,VWS V14.01,2013-02-15 18:53:00,
2013-02-15 12:58:00,36.9,14.9,30.33,NNW,328,2.0,7.0,40,0.00,,---,0.00,VWS V14.01,2013-02-15 18:58:00,
2013-02-15 13:03:00,35.5,14.1,30.32,NNW,334,1.0,7.0,41,0.00,,---,0.00,VWS V14.01,2013-02-15 19:03:00,
2013-02-15 13:08:00,36.5,15.1,30.32,NNW,332,3.0,6.0,41,0.00,,---,0.00,VWS V14.01,2013-02-15 19:08:00,
2013-02-15 13:13:00,36.6,15.1,30.36,NNW,337,7.0,8.0,41,0.00,,---,0.00,VWS V14.01,2013-02-15 19:13:00,
2013-02-15 13:18:00,36.8,15.3,30.36,NW,321,3.0,7.0,41,0.00,,---,0.00,VWS V14.01,2013-02-15 19:18:00,
2013-02-15 13:23:00,37.0,14.9,30.36,NNW,328,1.0,8.0,40,0.00,,---,0.00,VWS V14.01,2013-02-15 19:23:00,
2013-02-15 13:28:00,37.1,15.0,30.31,NNW,330,2.0,7.0,40,0.00,,---,0.00,VWS V14.01,2013-02-15 19:28:00,
2013-02-15 13:33:00,37.1,15.6,30.30,NW,324,1.0,6.0,41,0.00,,---,0.00,VWS V14.01,2013-02-15 19:33:00,
2013-02-15 13:38:00,37.3,15.8,30.30,NW,326,6.0,6.0,41,0.00,,---,0.00,VWS V14.01,2013-02-15 19:38:00,
2013-02-15 13:43:00,37.2,15.1,30.35,NW,313,3.0,9.0,40,0.00,,---,0.00,VWS V14.01,2013-02-15 19:43:00,
2013-02-15 13:48:00,37.8,15.1,30.34,NW,323,3.0,10.0,39,0.00,,---,0.00,VWS V14.01,2013-02-15 19:48:00,
2013-02-15 13:53:00,37.8,14.5,30.30,NNW,327,4.0,9.0,38,0.00,,---,0.00,VWS V14.01,2013-02-15 19:53:00,
2013-02-15 13:58:00,37.5,15.4,30.34,NNW,346,2.0,5.0,40,0.00,,---,0.00,VWS V14.01,2013-02-15 19:58:00,
2013-02-15 14:03:00,38.6,15.8,30.29,NW,310,0.0,2.0,39,0.00,,---,0.00,VWS V14.01,2013-02-15 20:03:00,
2013-02-15 14:08:00,38.9,16.1,30.29,NW,315,5.0,7.0,39,0.00,,---,0.00,VWS V14.01,2013-02-15 20:08:00,
2013-02-15 14:13:00,39.1,15.0,30.29,NW,313,4.0,11.0,37,0.00,,---,0.00,VWS V14.01,2013-02-15 20:13:00,
2013-02-15 14:18:00,38.1,14.1,30.29,NW,305,7.0,7.0,37,0.00,,---,0.00,VWS V14.01,2013-02-15 20:18:00,
2013-02-15 14:23:00,37.5,14.2,30.29,NW,320,2.0,6.0,38,0.00,,---,0.00,VWS V14.01,2013-02-15 20:23:00,
2013-02-15 14:28:00,37.1,13.9,30.29,NNW,340,3.0,7.0,38,0.00,,---,0.00,VWS V14.01,2013-02-15 20:28:00,
2013-02-15 14:33:00,37.1,14.4,30.33,NNW,337,3.0,8.0,39,0.00,,---,0.00,VWS V14.01,2013-02-15 20:33:00,
2013-02-15 14:38:00,37.1,15.0,30.29,NW,317,6.0,6.0,40,0.00,,---,0.00,VWS V14.01,2013-02-15 20:38:00,
2013-02-15 14:43:00,37.6,14.9,30.34,North,353,1.0,5.0,39,0.00,,---,0.00,VWS V14.01,2013-02-15 20:43:00,
2013-02-15 14:48:00,37.3,14.6,30.34,NNW,329,3.0,4.0,39,0.00,,---,0.00,VWS V14.01,2013-02-15 20:48:00,
2013-02-15 14:53:00,37.2,13.9,30.34,NNE,17,0.0,2.0,38,0.00,,---,0.00,VWS V14.01,2013-02-15 20:53:00,
2013-02-15 14:58:00,37.5,14.8,30.29,NW,305,0.0,4.0,39,0.00,,---,0.00,VWS V14.01,2013-02-15 20:58:00,
2013-02-15 15:03:00,38.3,14.9,30.33,North,353,5.0,6.0,38,0.00,,---,0.00,VWS V14.01,2013-02-15 21:03:00,
2013-02-15 15:08:00,38.1,14.1,30.33,NNE,12,7.0,8.0,37,0.00,,---,0.00,VWS V14.01,2013-02-15 21:08:00,
2013-02-15 15:13:00,37.7,14.4,30.28,NNW,332,4.0,10.0,38,0.00,,---,0.00,VWS V14.01,2013-02-15 21:13:00,
2013-02-15 15:18:00,37.7,14.4,30.33,NNW,342,2.0,6.0,38,0.00,,---,0.00,VWS V14.01,2013-02-15 21:18:00,
2013-02-15 15:23:00,37.8,15.1,30.33,NW,317,0.0,5.0,39,0.00,,---,0.00,VWS V14.01,2013-02-15 21:23:00,
2013-02-15 15:28:00,37.7,14.4,30.28,NNW,330,4.0,7.0,38,0.00,,---,0.00,VWS V14.01,2013-02-15 21:28:00,
2013-02-15 15:33:00,38.0,14.7,30.33,NNW,330,3.0,7.0,38,0.00,,---,0.00,VWS V14.01,2013-02-15 21:33:00,
2013-02-15 15:37:00,38.1,14.8,30.33,NW,318,4.0,8.0,38,0.00,,---,0.00,VWS V14.01,2013-02-15 21:37:00,
2013-02-15 15:43:00,37.8,14.5,30.28,NW,311,2.0,7.0,38,0.00,,---,0.00,VWS V14.01,2013-02-15 21:43:00,
2013-02-15 15:48:00,37.8,15.1,30.28,NNW,342,2.0,3.0,39,0.00,,---,0.00,VWS V14.01,2013-02-15 21:48:00,
2013-02-15 15:53:00,38.0,14.7,30.33,NNW,335,7.0,7.0,38,0.00,,---,0.00,VWS V14.01,2013-02-15 21:53:00,
2013-02-15 15:58:00,38.0,15.3,30.28,WNW,293,2.0,4.0,39,0.00,,---,0.00,VWS V14.01,2013-02-15 21:58:00,
2013-02-15 16:03:00,38.2,15.4,30.28,NW,323,3.0,5.0,39,0.00,,---,0.00,VWS V14.01,2013-02-15 22:03:00,
2013-02-15 16:07:00,38.3,15.5,30.28,NW,317,7.0,8.0,39,0.00,,---,0.00,VWS V14.01,2013-02-15 22:07:00,
2013-02-15 16:12:00,38.1,15.4,30.28,NW,307,5.0,7.0,39,0.00,,---,0.00,VWS V14.01,2013-02-15 22:12:00,
2013-02-15 16:17:00,38.0,14.7,30.28,NNW,328,8.0,8.0,38,0.00,,---,0.00,VWS V14.01,2013-02-15 22:17:00,
2013-02-15 16:22:00,37.6,15.5,30.33,NNW,337,4.0,8.0,40,0.00,,---,0.00,VWS V14.01,2013-02-15 22:22:00,
2013-02-15 16:27:00,37.4,14.7,30.32,NW,317,3.0,8.0,39,0.00,,---,0.00,VWS V14.01,2013-02-15 22:27:00,
2013-02-15 16:32:00,37.3,15.2,30.28,NW,315,3.0,4.0,40,0.00,,---,0.00,VWS V14.01,2013-02-15 22:32:00,
2013-02-15 16:37:00,37.5,15.4,30.32,WNW,299,3.0,4.0,40,0.00,,---,0.00,VWS V14.01,2013-02-15 22:37:00,
2013-02-15 16:42:00,37.3,15.2,30.27,WNW,290,3.0,6.0,40,0.00,,---,0.00,VWS V14.01,2013-02-15 22:42:00,
2013-02-15 16:47:00,37.3,15.8,30.32,NNW,330,3.0,6.0,41,0.00,,---,0.00,VWS V14.01,2013-02-15 22:47:00,
2013-02-15 16:52:00,37.1,15.6,30.28,NW,322,3.0,7.0,41,0.00,,---,0.00,VWS V14.01,2013-02-15 22:52:00,
2013-02-15 16:57:00,37.2,16.2,30.32,NW,318,6.0,6.0,42,0.00,,---,0.00,VWS V14.01,2013-02-15 22:57:00,
2013-02-15 17:02:00,36.9,16.5,30.32,NW,318,3.0,6.0,43,0.00,,---,0.00,VWS V14.01,2013-02-15 23:02:00,
2013-02-15 17:07:00,36.6,16.8,30.27,WNW,291,2.0,5.0,44,0.00,,---,0.00,VWS V14.01,2013-02-15 23:07:00,
2013-02-15 17:12:00,36.3,16.5,30.27,NNW,328,1.0,2.0,44,0.00,,---,0.00,VWS V14.01,2013-02-15 23:12:00,
2013-02-15 17:17:00,36.1,16.8,30.32,NNW,328,0.0,2.0,45,0.00,,---,0.00,VWS V14.01,2013-02-15 23:17:00,
2013-02-15 17:22:00,35.9,16.6,30.27,NNW,328,0.0,0.0,45,0.00,,---,0.00,VWS V14.01,2013-02-15 23:22:00,
2013-02-15 17:27:00,35.9,16.6,30.27,NNW,328,2.0,2.0,45,0.00,,---,0.00,VWS V14.01,2013-02-15 23:27:00,
2013-02-15 17:32:00,36.0,16.7,30.31,NNW,328,3.0,3.0,45,0.00,,---,0.00,VWS V14.01,2013-02-15 23:32:00,
2013-02-15 17:37:00,36.1,16.8,30.26,NNW,328,0.0,1.0,45,0.00,,---,0.00,VWS V14.01,2013-02-15 23:37:00,
2013-02-15 17:42:00,36.0,16.7,30.26,NNW,328,0.0,0.0,45,0.00,,---,0.00,VWS V14.01,2013-02-15 23:42:00,
2013-02-15 17:47:00,35.8,16.5,30.26,NNW,328,1.0,1.0,45,0.00,,---,0.00,VWS V14.01,2013-02-15 23:47:00,
2013-02-15 17:52:00,35.7,17.0,30.30,NNW,328,0.0,2.0,46,0.00,,---,0.00,VWS V14.01,2013-02-15 23:52:00,
2013-02-15 17:57:00,35.4,16.7,30.26,NNW,328,0.0,0.0,46,0.00,,---,0.00,VWS V14.01,2013-02-15 23:57:00,
2013-02-15 18:02:00,35.2,17.0,30.26,NNW,328,0.0,0.0,47,0.00,,---,0.00,VWS V14.01,2013-02-16 00:02:00,
2013-02-15 18:07:00,35.1,17.4,30.26,NNW,328,0.0,1.0,48,0.00,,---,0.00,VWS V14.01,2013-02-16 00:07:00,
2013-02-15 18:12:00,35.1,17.4,30.31,NNW,328,0.0,1.0,48,0.00,,---,0.00,VWS V14.01,2013-02-16 00:12:00,
2013-02-15 18:17:00,35.2,18.0,30.26,NNW,328,0.0,1.0,49,0.00,,---,0.00,VWS V14.01,2013-02-16 00:17:00,
2013-02-15 18:22:00,35.2,18.4,30.26,NNW,328,0.0,1.0,50,0.00,,---,0.00,VWS V14.01,2013-02-16 00:22:00,
2013-02-15 18:27:00,35.2,18.4,30.26,NNW,328,0.0,0.0,50,0.00,,---,0.00,VWS V14.01,2013-02-16 00:27:00,
2013-02-15 18:32:00,35.2,18.4,30.31,NNW,328,0.0,0.0,50,0.00,,---,0.00,VWS V14.01,2013-02-16 00:32:00,
2013-02-15 18:37:00,35.2,18.9,30.30,NNW,328,0.0,0.0,51,0.00,,---,0.00,VWS V14.01,2013-02-16 00:37:00,
2013-02-15 18:42:00,35.1,18.8,30.25,NNW,328,0.0,0.0,51,0.00,,---,0.00,VWS V14.01,2013-02-16 00:42:00,
2013-02-15 18:47:00,35.1,18.8,30.25,NNW,328,0.0,0.0,51,0.00,,---,0.00,VWS V14.01,2013-02-16 00:47:00,
2013-02-15 18:52:00,34.9,19.5,30.25,NNW,328,0.0,0.0,53,0.00,,---,0.00,VWS V14.01,2013-02-16 00:52:00,
2013-02-15 18:57:00,34.6,19.2,30.25,NNW,328,0.0,0.0,53,0.00,,---,0.00,VWS V14.01,2013-02-16 00:57:00,
2013-02-15 19:02:00,34.6,18.8,30.26,NNW,328,0.0,1.0,52,0.00,,---,0.00,VWS V14.01,2013-02-16 01:02:00,
2013-02-15 19:07:00,34.6,18.3,30.26,ENE,64,2.0,7.0,51,0.00,,---,0.00,VWS V14.01,2013-02-16 01:07:00,
2013-02-15 19:12:00,34.5,16.9,30.31,East,80,4.0,6.0,48,0.00,,---,0.00,VWS V14.01,2013-02-16 01:12:00,
2013-02-15 19:17:00,34.4,16.8,30.30,East,84,0.0,1.0,48,0.00,,---,0.00,VWS V14.01,2013-02-16 01:17:00,
2013-02-15 19:22:00,34.2,16.6,30.30,NE,53,0.0,4.0,48,0.00,,---,0.00,VWS V14.01,2013-02-16 01:22:00,
2013-02-15 19:27:00,34.1,16.5,30.25,East,91,0.0,4.0,48,0.00,,---,0.00,VWS V14.01,2013-02-16 01:27:00,
2013-02-15 19:32:00,34.1,16.5,30.30,NE,43,0.0,5.0,48,0.00,,---,0.00,VWS V14.01,2013-02-16 01:32:00,
2013-02-15 19:37:00,34.1,17.0,30.31,ENE,76,1.0,5.0,49,0.00,,---,0.00,VWS V14.01,2013-02-16 01:37:00,
2013-02-15 19:42:00,34.0,16.9,30.31,ENE,76,0.0,2.0,49,0.00,,---,0.00,VWS V14.01,2013-02-16 01:42:00,
2013-02-15 19:47:00,34.0,16.9,30.26,ENE,76,0.0,1.0,49,0.00,,---,0.00,VWS V14.01,2013-02-16 01:47:00,
2013-02-15 19:52:00,34.0,16.9,30.32,ENE,76,0.0,0.0,49,0.00,,---,0.00,VWS V14.01,2013-02-16 01:52:00,
2013-02-15 19:57:00,33.8,17.1,30.27,NNE,31,2.0,3.0,50,0.00,,---,0.00,VWS V14.01,2013-02-16 01:57:00,
2013-02-15 20:02:00,32.8,22.0,30.27,North,6,1.0,3.0,64,0.00,,---,0.00,VWS V14.01,2013-02-16 02:02:00,
2013-02-15 20:07:00,32.0,21.9,30.28,NNW,342,1.0,4.0,66,0.00,,---,0.00,VWS V14.01,2013-02-16 02:07:00,
2013-02-15 20:12:00,31.6,23.3,30.28,NNE,23,2.0,6.0,71,0.00,,---,0.00,VWS V14.01,2013-02-16 02:12:00,
2013-02-15 20:17:00,30.6,24.6,30.34,NNE,25,3.0,7.0,78,0.00,,---,0.00,VWS V14.01,2013-02-16 02:17:00,
2013-02-15 20:22:00,30.0,25.2,30.34,North,9,3.0,7.0,82,0.00,,---,0.00,VWS V14.01,2013-02-16 02:22:00,
2013-02-15 20:27:00,29.6,25.4,30.28,North,11,2.0,8.0,84,0.00,,---,0.00,VWS V14.01,2013-02-16 02:27:00,
2013-02-15 20:32:00,29.4,25.7,30.28,NNE,29,3.0,5.0,86,0.00,,---,0.00,VWS V14.01,2013-02-16 02:32:00,
2013-02-15 20:37:00,29.3,25.9,30.28,NE,37,0.0,3.0,87,0.00,,---,0.00,VWS V14.01,2013-02-16 02:37:00,
2013-02-15 20:42:00,29.2,26.1,30.27,NE,36,0.0,2.0,88,0.00,,---,0.00,VWS V14.01,2013-02-16 02:42:00,
2013-02-15 20:47:00,28.9,26.1,30.27,East,80,1.0,3.0,89,0.00,,---,0.00,VWS V14.01,2013-02-16 02:47:00,
2013-02-15 20:52:00,28.7,25.9,30.28,ENE,70,0.0,1.0,89,0.00,,---,0.00,VWS V14.01,2013-02-16 02:52:00,
2013-02-15 20:57:00,28.7,26.1,30.28,ENE,70,0.0,0.0,90,0.00,,---,0.00,VWS V14.01,2013-02-16 02:57:00,
2013-02-15 21:02:00,28.6,26.0,30.33,ENE,70,0.0,0.0,90,0.00,,---,0.00,VWS V14.01,2013-02-16 03:02:00,
2013-02-15 21:07:00,28.8,26.2,30.33,ENE,70,0.0,0.0,90,0.00,,---,0.00,VWS V14.01,2013-02-16 03:07:00,
2013-02-15 21:12:00,28.8,26.5,30.28,ENE,70,0.0,0.0,91,0.00,,---,0.00,VWS V14.01,2013-02-16 03:12:00,
2013-02-15 21:17:00,28.7,26.4,30.34,ENE,70,0.0,0.0,91,0.00,,---,0.00,VWS V14.01,2013-02-16 03:17:00,
2013-02-15 21:22:00,28.6,26.3,30.28,ENE,70,0.0,0.0,91,0.00,,---,0.00,VWS V14.01,2013-02-16 03:22:00,
2013-02-15 21:27:00,28.7,26.4,30.28,ENE,70,0.0,0.0,91,0.00,,---,0.00,VWS V14.01,2013-02-16 03:27:00,
2013-02-15 21:32:00,28.7,26.7,30.28,ENE,70,0.0,0.0,92,0.00,,---,0.00,VWS V14.01,2013-02-16 03:32:00,
2013-02-15 21:37:00,28.7,26.7,30.28,ENE,70,0.0,1.0,92,0.00,,---,0.00,VWS V14.01,2013-02-16 03:37:00,
2013-02-15 21:42:00,28.4,26.4,30.33,ENE,70,0.0,1.0,92,0.00,,---,0.00,VWS V14.01,2013-02-16 03:42:00,
2013-02-15 21:47:00,28.5,26.5,30.33,ENE,72,0.0,2.0,92,0.00,,---,0.00,VWS V14.01,2013-02-16 03:47:00,
2013-02-15 21:52:00,28.6,26.6,30.27,ENE,72,0.0,0.0,92,0.00,,---,0.00,VWS V14.01,2013-02-16 03:52:00,
2013-02-15 21:57:00,28.7,26.7,30.27,ENE,72,0.0,0.0,92,0.00,,---,0.00,VWS V14.01,2013-02-16 03:57:00,
2013-02-15 22:02:00,28.5,26.5,30.27,East,93,1.0,2.0,92,0.00,,---,0.00,VWS V14.01,2013-02-16 04:02:00,
2013-02-15 22:07:00,28.5,26.5,30.27,ESE,120,1.0,2.0,92,0.00,,---,0.00,VWS V14.01,2013-02-16 04:07:00,
2013-02-15 22:12:00,28.4,26.4,30.26,ESE,120,1.0,1.0,92,0.00,,---,0.00,VWS V14.01,2013-02-16 04:12:00,
2013-02-15 22:17:00,28.3,26.3,30.32,ESE,104,0.0,3.0,92,0.00,,---,0.00,VWS V14.01,2013-02-16 04:17:00,
2013-02-15 22:22:00,28.3,26.3,30.27,ESE,104,0.0,0.0,92,0.00,,---,0.00,VWS V14.01,2013-02-16 04:22:00,
2013-02-15 22:27:00,28.3,26.5,30.33,ESE,104,0.0,0.0,93,0.00,,---,0.00,VWS V14.01,2013-02-16 04:27:00,
2013-02-15 22:32:00,28.4,26.6,30.33,East,84,1.0,3.0,93,0.00,,---,0.00,VWS V14.01,2013-02-16 04:32:00,
2013-02-15 22:37:00,28.2,26.2,30.33,East,83,2.0,6.0,92,0.00,,---,0.00,VWS V14.01,2013-02-16 04:37:00,
2013-02-15 22:42:00,28.1,26.1,30.27,East,85,7.0,7.0,92,0.00,,---,0.00,VWS V14.01,2013-02-16 04:42:00,
2013-02-15 22:47:00,28.1,26.1,30.27,NE,47,4.0,4.0,92,0.00,,---,0.00,VWS V14.01,2013-02-16 04:47:00,
2013-02-15 22:52:00,28.0,26.0,30.33,ENE,59,1.0,7.0,92,0.00,,---,0.00,VWS V14.01,2013-02-16 04:52:00,
2013-02-15 22:57:00,27.8,25.8,30.33,East,84,1.0,7.0,92,0.00,,---,0.00,VWS V14.01,2013-02-16 04:57:00,
2013-02-15 23:00:00,27.7,25.7,30.33,ENE,62,2.0,4.0,92,0.00,,---,0.00,VWS V14.01,2013-02-16 05:00:00,
2013-02-15 23:05:00,27.7,25.4,30.28,North,5,5.0,5.0,91,0.00,,---,0.00,VWS V14.01,2013-02-16 05:05:00,
2013-02-15 23:10:00,27.5,25.2,30.34,NNE,27,2.0,7.0,91,0.00,,---,0.00,VWS V14.01,2013-02-16 05:10:00,
2013-02-15 23:15:00,27.5,25.2,30.34,ENE,58,2.0,6.0,91,0.00,,---,0.00,VWS V14.01,2013-02-16 05:15:00,
2013-02-15 23:20:00,27.4,25.1,30.34,NNE,31,1.0,5.0,91,0.00,,---,0.00,VWS V14.01,2013-02-16 05:20:00,
2013-02-15 23:23:00,27.3,24.8,30.28,NNE,28,3.0,5.0,90,0.00,,---,0.00,VWS V14.01,2013-02-16 05:23:00,
2013-02-15 23:28:00,27.2,24.7,30.34,ENE,67,2.0,4.0,90,0.00,,---,0.00,VWS V14.01,2013-02-16 05:28:00,
2013-02-15 23:33:00,27.3,24.5,30.33,NE,44,0.0,3.0,89,0.00,,---,0.00,VWS V14.01,2013-02-16 05:33:00,
2013-02-15 23:38:00,27.3,24.5,30.28,NE,39,2.0,2.0,89,0.00,,---,0.00,VWS V14.01,2013-02-16 05:38:00,
2013-02-15 23:43:00,27.3,24.2,30.28,NE,36,0.0,2.0,88,0.00,,---,0.00,VWS V14.01,2013-02-16 05:43:00,
2013-02-15 23:48:00,27.2,24.1,30.34,NNE,30,2.0,3.0,88,0.00,,---,0.00,VWS V14.01,2013-02-16 05:48:00,
2013-02-15 23:53:00,27.1,24.0,30.34,East,90,1.0,4.0,88,0.00,,---,0.00,VWS V14.01,2013-02-16 05:53:00,
2013-02-15 23:58:00,27.0,23.9,30.29,ENE,57,0.0,2.0,88,0.00,,---,0.00,VWS V14.01,2013-02-16 05:58:00,